Content
SEND FEEDBACK

Daily
Averages
Monthly
Summary
United States of America

HAMILTON, KANSAS


Home > North America > United States > Kansas
Elevation: 1430 feet     Latitude: 38 01N     Longitude: 096 19W

WEATHER
 
SELECT A DAY
Number of Records: 201,123;   Date Range: 1/1/95 - 11/24/14
 
SHARE

PRINT THIS DATA

[ ← Previous Day ]
WEATHER ALMANAC - FEBRUARY 1, 2013
[ Next Day → ]
[ °C ]   °F
Weather ElementAverageHighLow
Temperature20 °F30.9 °F (3:53 pm)9 °F (3:53 am)
Dewpoint8.5 °F12.9 °F (11:53 pm)3 °F (3:53 am)
Humidity63 %84 % (1:53 am)40 % (3:53 pm)
Barometer30.36 in30.49 in (7:53 am)30.19 in (11:53 pm)
Wind Speed9.7 mph17.3 mph (11:53 am)
Wind Gust21.9 mph (11:53 am)
Weather ElementAverage
Visibility10 mi
Wind DirectionS (174.8 °)

Weather ElementTotal
Precipitation---
Heating Degree Days45.1 (Base 65)
Averaged from 23 records on February 1, 2013
WEATHER CONDITIONS BREAKOUT
WIND DIRECTION BREAKOUT
WEATHER BY HOUR - FEBRUARY 1, 2013
[ °C ]   °F
Local TimeTemperatureDewpointHumidityBarometerVisibilityWind DirectionWind SpeedGust SpeedPrecipitationEventsConditions
1:53 AM10.0 °F6.1 °F84 %30.48 in10.0 miEast (100°)5.8 mphMostly Cloudy
2:53 AM10.0 °F5.0 °F80 %30.44 in10.0 miEast (80°)9.2 mphClear
3:53 AM9.0 °F3.0 °F77 %30.47 in10.0 miSSW (210°)6.9 mphClear
4:53 AM10.0 °F5.0 °F80 %30.48 in10.0 miSW (230°)4.6 mphClear
5:53 AM9.0 °F3.9 °F80 %30.48 in10.0 miSSW (210°)3.5 mphClear
6:53 AM9.0 °F3.9 °F80 %30.48 in10.0 miSSE (160°)5.8 mphClear
7:53 AM10.9 °F6.1 °F81 %30.49 in10.0 miSouth (170°)5.8 mphClear
8:53 AM16.0 °F9.0 °F74 %30.49 in10.0 miSouth (190°)6.9 mphOvercast
9:53 AM19.9 °F10.0 °F65 %30.45 in10.0 miSouth (190°)12.7 mphOvercast
10:53 AM21.9 °F9.0 °F58 %30.44 in10.0 miSouth (180°)13.8 mphOvercast
11:53 AM25.0 °F10.0 °F53 %30.42 in10.0 miSouth (190°)17.3 mph21.9 mphScattered Clouds
12:53 PM27.0 °F9.0 °F47 %30.38 in10.0 miSouth (190°)10.4 mphClear
1:53 PM27.0 °F9.0 °F47 %30.33 in10.0 miSouth (180°)16.1 mphClear
2:53 PM28.9 °F8.1 °F41 %30.29 in10.0 miSouth (180°)15.0 mph19.6 mphClear
3:53 PM30.9 °F9.0 °F40 %30.27 in10.0 miSouth (180°)11.5 mphClear
4:53 PM28.9 °F9.0 °F43 %30.24 in10.0 miSouth (170°)12.7 mphClear
5:53 PM26.1 °F10.0 °F51 %30.25 in10.0 miSouth (180°)9.2 mphClear
6:53 PM23.0 °F10.9 °F60 %30.25 in10.0 miSSE (160°)8.1 mphClear
7:53 PM21.9 °F10.9 °F63 %30.24 in10.0 miSSE (160°)8.1 mphClear
8:53 PM21.0 °F10.9 °F65 %30.23 in10.0 miSSE (160°)8.1 mphClear
9:53 PM23.0 °F12.0 °F63 %30.23 in10.0 miSouth (180°)10.4 mphClear
10:53 PM25.0 °F12.0 °F58 %30.21 in10.0 miSouth (180°)11.5 mphOvercast
11:53 PM26.1 °F12.9 °F58 %30.19 in10.0 miSouth (190°)9.2 mphOvercast
Hourly data recorded from KEMP, located miles away from Hamilton, Kansas







STORIES FROM OUR PARTNERS